• In Österreich
  • Länderverzeichnis
  • Für 7 Tage
  • Wassertemperatur
  • Satellitenkarten
  • Wetterkarte
  • News
  • Widgets
  • user-avatar
    Anmelden

    Stündliche Wetter Baranovitschi

    Heute, 22 April, Sonntag

    Zeit Temperatur Niederschläge Wind Luftdruck Luftfeuchtigkeit
    00:00 +7°C° 0 mm 4 m/S 744 mmHg 69%
    01:00 +7°C° 0 mm 4 m/S 744 mmHg 73%
    02:00 +7°C° 0 mm 3 m/S 744 mmHg 77%
    03:00 +5°C° 0 mm 3 m/S 744 mmHg 79%
    04:00 +5°C° 0 mm 3 m/S 744 mmHg 80%
    05:00 +4°C° 0 mm 3 m/S 744 mmHg 82%
    06:00 +5°C° 0 mm 3 m/S 744 mmHg 77%
    07:00 +8°C° 0 mm 3 m/S 744 mmHg 71%
    08:00 +8°C° 0 mm 4 m/S 744 mmHg 65%
    09:00 +11°C° 0 mm 4 m/S 744 mmHg 57%
    10:00 +13°C° 0 mm 5 m/S 743 mmHg 50%
    11:00 +15°C° 0 mm 5 m/S 743 mmHg 43%
    12:00 +15°C° 0 mm 6 m/S 743 mmHg 41%
    13:00 +16°C° 0 mm 6 m/S 743 mmHg 40%
    14:00 +16°C° 0 mm 6 m/S 743 mmHg 38%
    15:00 +16°C° 0 mm 6 m/S 743 mmHg 40%
    16:00 +16°C° 0 mm 5 m/S 743 mmHg 43%
    17:00 +15°C° 0 mm 5 m/S 743 mmHg 45%
    18:00 +14°C° 0 mm 4 m/S 743 mmHg 50%
    19:00 +12°C° 0 mm 3 m/S 743 mmHg 55%
    20:00 +12°C° 0 mm 2 m/S 743 mmHg 60%
    21:00 +10°C° 0 mm 2 m/S 744 mmHg 64%
    22:00 +9°C° 0 mm 2 m/S 744 mmHg 67%
    23:00 +8°C° 0 mm 2 m/S 744 mmHg 70%

    Morgen, 23 April, Montag

    Zeit Temperatur Niederschläge Wind Luftdruck Luftfeuchtigkeit
    00:00 +7°C° 0 mm 2 m/S 745 mmHg 71%
    01:00 +6°C° 0 mm 2 m/S 745 mmHg 72%
    02:00 +6°C° 0 mm 2 m/S 745 mmHg 73%
    03:00 +6°C° 0 mm 1 m/S 745 mmHg 73%
    04:00 +6°C° 0 mm 1 m/S 745 mmHg 74%
    05:00 +5°C° 0 mm 1 m/S 745 mmHg 75%
    06:00 +7°C° 0 mm 1 m/S 745 mmHg 70%
    07:00 +8°C° 0 mm 1 m/S 746 mmHg 65%
    08:00 +10°C° 0 mm 1 m/S 746 mmHg 61%
    09:00 +11°C° 0 mm 1 m/S 746 mmHg 56%
    10:00 +13°C° 0 mm 1 m/S 746 mmHg 51%
    11:00 +15°C° 0 mm 1 m/S 746 mmHg 46%
    12:00 +15°C° 0 mm 2 m/S 746 mmHg 43%
    13:00 +16°C° 0 mm 2 m/S 745 mmHg 41%
    14:00 +17°C° 0 mm 2 m/S 745 mmHg 38%
    15:00 +17°C° 0 mm 2 m/S 744 mmHg 40%
    16:00 +17°C° 0 mm 2 m/S 744 mmHg 41%
    17:00 +17°C° 0 mm 2 m/S 743 mmHg 42%
    18:00 +16°C° 0 mm 2 m/S 743 mmHg 47%
    19:00 +14°C° 0 mm 2 m/S 743 mmHg 52%
    20:00 +13°C° 0 mm 2 m/S 743 mmHg 57%
    21:00 +13°C° 0,1 mm 2 m/S 742 mmHg 59%
    22:00 +12°C° 0,1 mm 2 m/S 742 mmHg 60%
    23:00 +11°C° 0,1 mm 3 m/S 742 mmHg 62%

    übermorgen, 24 April, Dienstag

    Zeit Temperatur Niederschläge Wind Luftdruck Luftfeuchtigkeit
    00:00 +11°C° 0,6 mm 3 m/S 741 mmHg 68%
    01:00 +10°C° 0,6 mm 3 m/S 741 mmHg 75%
    02:00 +9°C° 0,6 mm 3 m/S 741 mmHg 81%
    03:00 +9°C° 0,3 mm 3 m/S 740 mmHg 84%
    04:00 +9°C° 0,3 mm 3 m/S 740 mmHg 87%
    05:00 +9°C° 0,3 mm 3 m/S 740 mmHg 90%
    06:00 +10°C° 0,1 mm 4 m/S 741 mmHg 87%
    07:00 +9°C° 0,1 mm 5 m/S 741 mmHg 85%
    08:00 +9°C° 0,1 mm 5 m/S 741 mmHg 82%
    09:00 +10°C° 0 mm 6 m/S 741 mmHg 75%
    10:00 +11°C° 0 mm 6 m/S 742 mmHg 68%
    11:00 +13°C° 0 mm 6 m/S 742 mmHg 61%
    12:00 +14°C° 0 mm 6 m/S 742 mmHg 60%
    13:00 +14°C° 0 mm 6 m/S 742 mmHg 59%
    14:00 +14°C° 0 mm 6 m/S 742 mmHg 58%
    15:00 +14°C° 0 mm 6 m/S 742 mmHg 58%
    16:00 +14°C° 0 mm 5 m/S 742 mmHg 58%
    17:00 +13°C° 0 mm 5 m/S 742 mmHg 59%
    18:00 +12°C° 0 mm 4 m/S 743 mmHg 65%
    19:00 +11°C° 0 mm 3 m/S 743 mmHg 71%
    20:00 +9°C° 0 mm 2 m/S 743 mmHg 77%
    21:00 +9°C° 0 mm 2 m/S 743 mmHg 77%
    22:00 +9°C° 0 mm 2 m/S 743 mmHg 77%
    23:00 +9°C° 0 mm 2 m/S 743 mmHg 77%

    25 April, Mittwoch

    Zeit Temperatur Niederschläge Wind Luftdruck Luftfeuchtigkeit
    00:00 +9°C° 0,1 mm 2 m/S 742 mmHg 78%
    01:00 +9°C° 0,1 mm 3 m/S 742 mmHg 79%
    02:00 +10°C° 0,1 mm 3 m/S 742 mmHg 79%
    03:00 +10°C° 0,3 mm 4 m/S 741 mmHg 80%
    04:00 +10°C° 0,3 mm 4 m/S 741 mmHg 81%
    05:00 +10°C° 0,3 mm 4 m/S 741 mmHg 82%
    06:00 +10°C° 0 mm 5 m/S 741 mmHg 80%
    07:00 +12°C° 0 mm 5 m/S 741 mmHg 78%
    08:00 +13°C° 0 mm 6 m/S 741 mmHg 77%
    09:00 +13°C° 0,1 mm 6 m/S 741 mmHg 76%
    10:00 +13°C° 0,1 mm 6 m/S 741 mmHg 75%
    11:00 +14°C° 0,1 mm 7 m/S 741 mmHg 74%
    12:00 +14°C° 0,1 mm 6 m/S 741 mmHg 72%
    13:00 +14°C° 0,1 mm 6 m/S 741 mmHg 70%
    14:00 +15°C° 0,1 mm 6 m/S 741 mmHg 67%
    15:00 +14°C° 0,1 mm 6 m/S 741 mmHg 67%
    16:00 +14°C° 0,1 mm 5 m/S 741 mmHg 67%
    17:00 +13°C° 0,1 mm 5 m/S 741 mmHg 67%
    18:00 +12°C° 0,4 mm 4 m/S 741 mmHg 72%
    19:00 +11°C° 0,4 mm 3 m/S 741 mmHg 78%
    20:00 +10°C° 0,4 mm 2 m/S 741 mmHg 84%
    21:00 +9°C° 1 mm 3 m/S 741 mmHg 86%
    22:00 +8°C° 1 mm 3 m/S 741 mmHg 88%
    23:00 +7°C° 1 mm 3 m/S 741 mmHg 90%

    26 April, Donnerstag

    Zeit Temperatur Niederschläge Wind Luftdruck Luftfeuchtigkeit
    00:00 +7°C° 0,2 mm 2 m/S 741 mmHg 91%
    01:00 +6°C° 0,2 mm 2 m/S 741 mmHg 92%
    02:00 +6°C° 0,2 mm 2 m/S 741 mmHg 93%
    03:00 +6°C° 0,1 mm 2 m/S 742 mmHg 93%
    04:00 +5°C° 0,1 mm 2 m/S 742 mmHg 94%
    05:00 +5°C° 0,1 mm 2 m/S 742 mmHg 94%
    06:00 +6°C° 0 mm 2 m/S 743 mmHg 89%
    07:00 +8°C° 0 mm 2 m/S 743 mmHg 83%
    08:00 +9°C° 0 mm 2 m/S 743 mmHg 77%
    09:00 +11°C° 0 mm 3 m/S 743 mmHg 70%
    10:00 +12°C° 0 mm 3 m/S 743 mmHg 63%
    11:00 +13°C° 0 mm 3 m/S 743 mmHg 56%
    12:00 +14°C° 0 mm 4 m/S 743 mmHg 54%
    13:00 +15°C° 0 mm 4 m/S 743 mmHg 52%
    14:00 +17°C° 0 mm 4 m/S 742 mmHg 50%
    15:00 +17°C° 0 mm 4 m/S 742 mmHg 51%
    16:00 +17°C° 0 mm 4 m/S 742 mmHg 53%
    17:00 +17°C° 0 mm 4 m/S 741 mmHg 55%
    18:00 +14°C° 0,1 mm 4 m/S 741 mmHg 62%
    19:00 +13°C° 0,1 mm 3 m/S 741 mmHg 70%
    20:00 +11°C° 0,1 mm 3 m/S 741 mmHg 78%
    21:00 +11°C° 0,1 mm 3 m/S 741 mmHg 80%
    22:00 +12°C° 0,1 mm 2 m/S 741 mmHg 81%
    23:00 +12°C° 0,1 mm 2 m/S 742 mmHg 83%

    27 April, Freitag

    Zeit Temperatur Niederschläge Wind Luftdruck Luftfeuchtigkeit
    00:00 +10°C° 0,1 mm 2 m/S 741 mmHg 84%
    01:00 +10°C° 0,1 mm 2 m/S 741 mmHg 85%
    02:00 +10°C° 0,1 mm 2 m/S 741 mmHg 86%
    03:00 +9°C° 0,1 mm 3 m/S 742 mmHg 88%
    04:00 +9°C° 0,1 mm 3 m/S 742 mmHg 89%
    05:00 +8°C° 0,1 mm 3 m/S 742 mmHg 90%
    06:00 +9°C° 0 mm 3 m/S 742 mmHg 86%
    07:00 +8°C° 0 mm 4 m/S 743 mmHg 81%
    08:00 +10°C° 0 mm 4 m/S 743 mmHg 76%
    09:00 +10°C° 0 mm 5 m/S 743 mmHg 69%
    10:00 +12°C° 0 mm 5 m/S 743 mmHg 62%
    11:00 +13°C° 0 mm 5 m/S 744 mmHg 55%
    12:00 +13°C° 0,1 mm 5 m/S 744 mmHg 52%
    13:00 +13°C° 0,1 mm 5 m/S 744 mmHg 50%
    14:00 +14°C° 0,1 mm 6 m/S 744 mmHg 48%
    15:00 +14°C° 0 mm 5 m/S 744 mmHg 48%
    16:00 +14°C° 0 mm 5 m/S 744 mmHg 48%
    17:00 +13°C° 0 mm 5 m/S 744 mmHg 48%
    18:00 +12°C° 0 mm 4 m/S 745 mmHg 55%
    19:00 +10°C° 0 mm 3 m/S 745 mmHg 61%
    20:00 +8°C° 0 mm 2 m/S 745 mmHg 68%
    21:00 +8°C° 0 mm 2 m/S 746 mmHg 70%
    22:00 +7°C° 0 mm 2 m/S 746 mmHg 72%
    23:00 +7°C° 0 mm 2 m/S 746 mmHg 74%
    Mehr zeigen